Location: Hylvaty SDH
(49.9612°N, 16.4057°E)
Time: 20:33:43
(UTC+02:00)

Transit 4A - Pass Details

Date: 11 August 2020
Orbit: 862 x 982 km, 66.8° (Epoch: 28 September)

Event Time Altitude Azimuth Distance (km) Brightness Sun altitude
Rises 20:07:09 0° 314° (NW) 3,663 12.6 1.0°
Reaches altitude 10° 20:10:29 10° 297° (WNW) 2,725 12.7 0.5°
Maximum altitude 20:14:41 19° 256° (WSW) 2,160 10.7 -0.1°
Drops below altitude 10° 20:18:55 10° 214° (SW) 2,729 10.5 -0.8°
Sets 20:22:15 0° 197° (SSW) 3,671 10.9 -1.3°
